sat.trackr.live / text

‹ back to catalog

STARLINK-35068

NORAD 65438 · 2025-194E

PAYLOAD ACTIVE UNKNOWN

§ Identity

Operator
Country
US
Launch date
2025-09-03
Launch site
AFWTR
Launch vehicle
Mass (kg)
RCS (m²)

Purposes: comms

External: N2YO · Heavens-Above · Gunter

§ Orbital elements

Epoch: 2026-09-20T12:44:08.261088Z

Period
93.90 min
Inclination
97.2834°
Eccentricity
0.0002279
Mean motion
15.33465431 rev/d
Perigee alt
463.9 km
Apogee alt
467.0 km
Semi-major
6,843.6 km
B*
3.7388e-4
RAAN
113.1906°
Arg perigee
77.4183°
Mean anomaly
282.7314°
Rev number
5,907

§ Raw data

STARLINK-350681 65438U 25194E   26263.53065117  .00012023  00000+0  37388-3 0  99932 65438  97.2834 113.1906 0002279  77.4183 282.7314 15.33465431 59075

JSON: /api/v1/satellites/65438 · /tle

For live sub-satellite position, see the globe view (requires WebGL).

§ Visibility from observer

Set your observer location to see the next 7 days of passes ≥ 10°. The values pass through the URL so the page stays shareable.

No JS? Fill the form by hand. The geolocation button needs JavaScript.